"Pseudo-MPEC" for P11665S

Created 2020 Sep 17 0:07:38 UT using Find_Orb

Click here for an explanation of pseudo-MPECs

 
 Astrometry: 
     P11665S  C2020 09 14km24r^#;9Phkg;]v_=w\qd34?TA=bgdAstrometryN!\l_`bR6PwF51
     P11665S  C2020 09 14WETnB91?O(]cq8s3Y^aZ@.sZpredacted;%J[EVPgJ;-yDjb:G3,F51
     P11665S  C2020 09 14@Fe$.yypr3@Q8@Tsed#S4?:4=^P1+dd]^L]]B/Kbac\o\HY:UnYoF51
     P11665S ^C2020 09 15.36372600 29 20.554-20 16 22.49   ~9FK7 21.41GVNEOCP568
     P11665S ^C2020 09 15.36467400 29 20.738-20 16 21.93   ~9FK7 21.45GVNEOCP568
     P11665S  C2020 09 15\PS2a9PY?;=#A;cfJOc?eeS%@G85)hBo*click5c.;26Z'TDG5HvF51
     P11665S  C2020 09 15Rh;=hereAu]B3L%VHt`^t#li*Xd94b`I16!yRtMUp:'upPI0hx44F51
     P11665S  C2020 09 15ArG!\`6EG_V7a/iY]p5-ep\[F+Fh]Z#%RJhdgeVw#q`FPCq?*\6fF51
     P11665S  C2020 09 16.34262 00 32 50.85 -20 05 38.7    ~9G8q 21.3 GVNEOCPV06
     P11665S  C2020 09 16.34529 00 32 51.39 -20 05 37.1    ~9G8q 21.8 GVNEOCPV06
     P11665S  C2020 09 16.34796 00 32 51.89 -20 05 34.8    ~9G8q 21.3 GVNEOCPV06
     P11665S  C2020 09 16.35062 00 32 52.43 -20 05 32.7    ~9G8q 21.8 GVNEOCPV06
     P11665S  C2020 09 16=6Lc%/w\h),Irpe_for\u]9lC_wAVK8,l0CrM'K^JTDs:8fP4#iZF52
     P11665S  C2020 09 16)WA_NGRZmb#e5%F:=poaCuV\;`JrP*s3bnL6o$JexplanationbfF52
     P11665S  C2020 09 16('V-Np%x?fvoBXd)(]3fV(JL@QC\qKd'2lx7DqX@fRQ]4hJ!DJ)HF52

Station data:
(568) Mauna Kea  (N19.826116 W155.472200)  US/Hawaii.
(F51) Pan-STARRS 1, Haleakala  (N20.707235 W156.255910)  US/Hawaii.
   Observers N. Primak, A. Schultz, S. Watters, J. Thiel, T. Goggia. Measurer
   PS1 Science Consortium. 1.8-m Ritchey-Chrétien + CCD.
(F52) Pan-STARRS 2, Haleakala  (N20.707384 W156.255910)  US/Hawaii. 1.8-m
   Ritchey-Chrétien + CCD.
(V06) Catalina Sky Survey-Kuiper  (N32.416847 W110.732550)  US/Arizona.
   Observers T. A. Pruyne, B. M. Africano, E. J. Christensen, G. A. Farneth,
   D. C. Fuls, A. R. Gibbs, A. D. Grauer, H. Gröller, J. A. Johnson, R. A.
   Kowalski, S. M. Larson, G. J. Leonard, D. Rankin, R. L. Seaman, F. C.
   Shelly. 1.55-m reflector + CCD.

Orbital elements:  P11665S
   Perihelion 2020 Oct 20.168216 +/- 0.0794 TT =  4:02:13 (JD 2459142.668216)
Epoch 2020 Sep 16.0 TT = JDT 2459108.5   Earth MOID: 0.0926   Ma: 0.0483
M 351.84086062 +/- 0.22             (J2000 ecliptic)          AutoNEOCP
n   0.23879325 +/- 0.00639          Peri.  342.83183 +/- 0.29
a   2.57308826 +/- 0.0459           Node    46.82802 +/- 0.21
e   0.5782461 +/- 0.00711           Incl.    3.87324 +/- 0.029
P   4.13                   H 24.4   G  0.15   U  9.3  
q 1.08520997 +/- 0.0012    Q 4.06096655 +/- 0.0928
From 15 observations 2020 Sept. 14-16; mean residual 0".15
Residuals in arcseconds: 
200914 F51  .06-  .08+    200915 F51  .05-  .06-    200916 V06  .22-  .14+    
200914 F51  .08+  .02+    200915 F51  .07-  .16-    200916 V06  .16-  .33+    
200914 F51  .02-  .02+    200915 F51  .13+  .12-    200916 F52  .03-  .13-    
200915 568  .01+  .01+    200916 V06  .27+  .05+    200916 F52  .09+  .21+    
200915 568  .02-  .03+    200916 V06  .31+  .26-    200916 F52  .22-  .17-    

Ephemerides (geocentric):
Date (UTC) HH   RA              Dec         delta   r     elong  mag " sig PA
---- -- -- --  -------------   -----------  ------ ------ -----  --- ---- ---
2020 09 17 00  00 35 17.768   -19 56 49.59  .16656 1.1609 157.6 21.8 .576  16
2020 09 17 01  00 35 27.202   -19 56 17.31  .16638 1.1607 157.6 21.8 .591  17
2020 09 17 02  00 35 36.651   -19 55 44.86  .16621 1.1605 157.6 21.8 .607  18
2020 09 17 03  00 35 46.114   -19 55 12.24  .16604 1.1603 157.6 21.8 .624  19
2020 09 17 04  00 35 55.592   -19 54 39.46  .16587 1.1602 157.6 21.8 .641  20
2020 09 17 05  00 36 05.084   -19 54 06.52  .16570 1.1600 157.6 21.8 .659  21
2020 09 17 06  00 36 14.591   -19 53 33.41  .16553 1.1598 157.6 21.8 .677  21
2020 09 17 07  00 36 24.113   -19 53 00.14  .16536 1.1596 157.6 21.7 .696  22
2020 09 17 08  00 36 33.649   -19 52 26.69  .16519 1.1594 157.6 21.7 .716  23
2020 09 17 09  00 36 43.200   -19 51 53.09  .16502 1.1593 157.5 21.7 .736  24
2020 09 17 10  00 36 52.766   -19 51 19.31  .16485 1.1591 157.5 21.7 .756  24
2020 09 17 11  00 37 02.346   -19 50 45.37  .16468 1.1589 157.5 21.7 .778  25
2020 09 17 12  00 37 11.941   -19 50 11.25  .16451 1.1587 157.5 21.7 .799  26
2020 09 17 13  00 37 21.551   -19 49 36.97  .16434 1.1586 157.5 21.7 .822  26
2020 09 17 14  00 37 31.176   -19 49 02.52  .16417 1.1584 157.5 21.7 .845  27
2020 09 17 15  00 37 40.815   -19 48 27.90  .16400 1.1582 157.5 21.7 .868  28
2020 09 17 16  00 37 50.469   -19 47 53.11  .16383 1.1580 157.5 21.7 .892  28
2020 09 17 17  00 38 00.139   -19 47 18.15  .16366 1.1578 157.5 21.7 .917  29
2020 09 17 18  00 38 09.823   -19 46 43.02  .16349 1.1577 157.5 21.7 .942  29
2020 09 17 19  00 38 19.521   -19 46 07.72  .16333 1.1575 157.5 21.7 .968  30
2020 09 17 20  00 38 29.235   -19 45 32.24  .16316 1.1573 157.5 21.7 0.99  30
2020 09 17 21  00 38 38.964   -19 44 56.59  .16299 1.1571 157.5 21.7 1.02  31
2020 09 17 22  00 38 48.708   -19 44 20.77  .16282 1.1570 157.5 21.7 1.05  31
2020 09 17 23  00 38 58.466   -19 43 44.77  .16266 1.1568 157.4 21.7 1.08  32
2020 09 18 00  00 39 08.240   -19 43 08.60  .16249 1.1566 157.4 21.7 1.10  32
2020 09 18 01  00 39 18.029   -19 42 32.26  .16232 1.1564 157.4 21.7 1.13  32
2020 09 18 02  00 39 27.833   -19 41 55.74  .16215 1.1563 157.4 21.7 1.16  33
2020 09 18 03  00 39 37.652   -19 41 19.04  .16199 1.1561 157.4 21.7 1.19  33
2020 09 18 04  00 39 47.486   -19 40 42.17  .16182 1.1559 157.4 21.7 1.23  34
2020 09 18 05  00 39 57.335   -19 40 05.12  .16165 1.1557 157.4 21.7 1.26  34
2020 09 18 06  00 40 07.199   -19 39 27.89  .16149 1.1556 157.4 21.7 1.29  34
2020 09 18 07  00 40 17.079   -19 38 50.49  .16132 1.1554 157.4 21.7 1.32  35
2020 09 18 08  00 40 26.973   -19 38 12.90  .16116 1.1552 157.4 21.7 1.35  35
2020 09 18 09  00 40 36.883   -19 37 35.14  .16099 1.1550 157.4 21.7 1.39  35
2020 09 18 10  00 40 46.808   -19 36 57.20  .16082 1.1549 157.4 21.7 1.42  36
2020 09 18 11  00 40 56.749   -19 36 19.08  .16066 1.1547 157.4 21.7 1.46  36
2020 09 18 12  00 41 06.704   -19 35 40.78  .16049 1.1545 157.4 21.7 1.49  36
2020 09 18 13  00 41 16.675   -19 35 02.30  .16033 1.1543 157.3 21.7 1.53  36
2020 09 18 14  00 41 26.662   -19 34 23.64  .16016 1.1542 157.3 21.7 1.57  37
2020 09 18 15  00 41 36.663   -19 33 44.79  .16000 1.1540 157.3 21.7 1.60  37
2020 09 18 16  00 41 46.680   -19 33 05.76  .15984 1.1538 157.3 21.7 1.64  37
2020 09 18 17  00 41 56.713   -19 32 26.55  .15967 1.1536 157.3 21.7 1.68  37
2020 09 18 18  00 42 06.761   -19 31 47.16  .15951 1.1535 157.3 21.7 1.72  38
2020 09 18 19  00 42 16.824   -19 31 07.58  .15934 1.1533 157.3 21.7 1.76  38
2020 09 18 20  00 42 26.903   -19 30 27.82  .15918 1.1531 157.3 21.7 1.80  38
2020 09 18 21  00 42 36.997   -19 29 47.88  .15902 1.1530 157.3 21.7 1.84  38
2020 09 18 22  00 42 47.107   -19 29 07.74  .15885 1.1528 157.3 21.7 1.88  38
2020 09 18 23  00 42 57.232   -19 28 27.43  .15869 1.1526 157.3 21.7 1.92  39